Time,TemperatureF,DewpointF,PressureIn,WindDirection,WindDirectionDegrees,WindSpeedMPH,WindSpeedGustMPH,Humidity,HourlyPrecipIn,Conditions,Clouds,dailyrainin,SoftwareType,DateUTC
2013-08-21 00:01:00,63.0,62.6,30.00,SE,136,0.0,0.0,99,0.00,,,0.01,meteohub,2013-08-21 04:01:00,
2013-08-21 00:02:00,63.0,62.6,30.00,SE,137,0.0,0.0,99,0.00,,,0.01,meteohub,2013-08-21 04:02:00,
2013-08-21 00:08:00,63.0,62.6,30.00,SE,137,0.0,1.0,99,0.00,,,0.01,meteohub,2013-08-21 04:08:00,
2013-08-21 00:13:00,62.8,62.2,30.00,SE,137,0.0,1.0,98,0.00,,,0.01,meteohub,2013-08-21 04:13:00,
2013-08-21 00:18:00,62.8,62.4,30.00,SE,137,0.0,2.0,99,0.00,,,0.01,meteohub,2013-08-21 04:18:00,
2013-08-21 00:23:00,62.8,62.2,30.00,SSE,150,0.0,2.0,98,0.00,,,0.01,meteohub,2013-08-21 04:23:00,
2013-08-21 00:28:00,62.6,62.1,30.00,SSE,150,0.0,2.0,98,0.00,,,0.01,meteohub,2013-08-21 04:28:00,
2013-08-21 00:33:00,62.6,62.2,30.00,SSE,150,0.0,2.0,99,0.00,,,0.01,meteohub,2013-08-21 04:33:00,
2013-08-21 00:38:00,62.4,62.1,30.00,SSE,150,0.0,2.0,99,0.00,,,0.01,meteohub,2013-08-21 04:38:00,
2013-08-21 00:43:00,62.4,62.1,30.00,SSW,202,0.0,1.0,99,0.00,,,0.01,meteohub,2013-08-21 04:43:00,
2013-08-21 00:49:00,62.4,62.1,30.00,SSW,202,0.0,2.0,99,0.00,,,0.01,meteohub,2013-08-21 04:49:00,
2013-08-21 00:54:00,62.2,61.9,30.00,South,187,0.0,2.0,99,0.00,,,0.01,meteohub,2013-08-21 04:54:00,
2013-08-21 00:59:00,62.1,61.7,29.99,SSW,199,4.0,4.0,99,0.00,,,0.01,meteohub,2013-08-21 04:59:00,
2013-08-21 01:04:00,62.1,61.7,29.99,SSW,192,1.0,3.0,99,0.00,,,0.01,meteohub,2013-08-21 05:04:00,
2013-08-21 01:09:00,62.1,61.7,30.00,South,189,0.0,4.0,99,0.00,,,0.01,meteohub,2013-08-21 05:09:00,
2013-08-21 01:14:00,61.9,61.5,29.99,South,189,0.0,4.0,99,0.00,,,0.01,meteohub,2013-08-21 05:14:00,
2013-08-21 01:19:00,61.9,61.5,29.99,South,189,0.0,4.0,99,0.00,,,0.01,meteohub,2013-08-21 05:19:00,
2013-08-21 01:24:00,61.9,61.5,29.99,South,189,0.0,4.0,99,0.00,,,0.01,meteohub,2013-08-21 05:24:00,
2013-08-21 01:30:00,61.7,61.3,29.99,SSE,167,0.0,2.0,99,0.00,,,0.01,meteohub,2013-08-21 05:30:00,
2013-08-21 01:35:00,61.9,61.5,29.99,South,180,1.0,3.0,99,0.00,,,0.01,meteohub,2013-08-21 05:35:00,
2013-08-21 01:40:00,61.7,61.3,29.99,SSW,192,1.0,3.0,99,0.00,,,0.01,meteohub,2013-08-21 05:40:00,
2013-08-21 01:45:00,61.7,61.3,29.99,SSW,192,0.0,2.0,99,0.00,,,0.01,meteohub,2013-08-21 05:45:00,
2013-08-21 01:50:00,61.5,61.2,29.99,SSW,192,0.0,2.0,99,0.00,,,0.01,meteohub,2013-08-21 05:50:00,
2013-08-21 01:55:00,61.5,61.2,29.99,SSW,192,0.0,2.0,99,0.00,,,0.01,meteohub,2013-08-21 05:55:00,
2013-08-21 02:00:00,61.5,61.2,29.99,SSW,192,0.0,2.0,99,0.00,,,0.01,meteohub,2013-08-21 06:00:00,
2013-08-21 02:05:00,61.5,61.2,29.99,SSE,155,2.0,2.0,99,0.00,,,0.01,meteohub,2013-08-21 06:05:00,
2013-08-21 02:11:00,61.5,61.2,29.99,SSE,157,0.0,2.0,99,0.00,,,0.01,meteohub,2013-08-21 06:11:00,
2013-08-21 02:16:00,61.5,61.2,29.99,South,177,0.0,2.0,99,0.00,,,0.01,meteohub,2013-08-21 06:16:00,
2013-08-21 02:21:00,61.3,61.0,29.99,South,178,0.0,2.0,99,0.00,,,0.01,meteohub,2013-08-21 06:21:00,
2013-08-21 02:26:00,61.3,61.0,29.99,South,175,0.0,2.0,99,0.00,,,0.01,meteohub,2013-08-21 06:26:00,
2013-08-21 02:31:00,61.3,61.0,29.99,South,171,0.0,2.0,99,0.00,,,0.01,meteohub,2013-08-21 06:31:00,
2013-08-21 02:36:00,61.3,61.0,29.99,South,180,0.0,2.0,99,0.00,,,0.01,meteohub,2013-08-21 06:36:00,
2013-08-21 02:41:00,61.3,61.0,29.99,South,182,0.0,2.0,99,0.00,,,0.01,meteohub,2013-08-21 06:41:00,
2013-08-21 02:46:00,61.2,60.8,29.99,South,184,0.0,3.0,99,0.00,,,0.01,meteohub,2013-08-21 06:46:00,
2013-08-21 02:52:00,61.3,61.0,29.99,South,183,0.0,3.0,99,0.00,,,0.01,meteohub,2013-08-21 06:52:00,
2013-08-21 02:57:00,61.3,61.0,29.99,South,184,0.0,2.0,99,0.00,,,0.01,meteohub,2013-08-21 06:57:00,
2013-08-21 03:02:00,61.3,61.0,29.99,South,184,0.0,1.0,99,0.00,,,0.01,meteohub,2013-08-21 07:02:00,
2013-08-21 03:07:00,61.2,60.8,29.99,South,183,0.0,1.0,99,0.00,,,0.01,meteohub,2013-08-21 07:07:00,
2013-08-21 03:12:00,61.0,60.6,29.99,South,183,0.0,1.0,99,0.00,,,0.01,meteohub,2013-08-21 07:12:00,
2013-08-21 03:17:00,60.6,60.3,29.99,South,183,0.0,1.0,99,0.00,,,0.01,meteohub,2013-08-21 07:17:00,
2013-08-21 03:22:00,60.6,60.3,29.99,South,183,0.0,1.0,99,0.00,,,0.01,meteohub,2013-08-21 07:22:00,
2013-08-21 03:27:00,60.4,60.1,29.98,South,183,0.0,1.0,99,0.00,,,0.01,meteohub,2013-08-21 07:27:00,
2013-08-21 03:32:00,60.3,59.9,29.99,South,183,0.0,0.0,99,0.00,,,0.01,meteohub,2013-08-21 07:32:00,
2013-08-21 03:37:00,60.3,59.9,29.99,South,183,0.0,1.0,99,0.00,,,0.01,meteohub,2013-08-21 07:37:00,
2013-08-21 03:42:00,60.3,59.9,29.98,South,183,0.0,1.0,99,0.00,,,0.01,meteohub,2013-08-21 07:42:00,
2013-08-21 03:47:00,60.3,59.9,29.99,South,183,0.0,1.0,99,0.00,,,0.01,meteohub,2013-08-21 07:47:00,
2013-08-21 03:52:00,60.1,59.7,29.98,South,183,0.0,1.0,99,0.00,,,0.01,meteohub,2013-08-21 07:52:00,
2013-08-21 03:57:00,60.1,59.7,29.98,South,183,0.0,0.0,99,0.00,,,0.01,meteohub,2013-08-21 07:57:00,
2013-08-21 04:02:00,60.1,59.7,29.98,South,183,0.0,1.0,99,0.00,,,0.01,meteohub,2013-08-21 08:02:00,
2013-08-21 04:07:00,59.9,59.5,29.98,South,183,0.0,1.0,99,0.00,,,0.01,meteohub,2013-08-21 08:07:00,
2013-08-21 04:12:00,59.7,59.4,29.98,South,183,0.0,1.0,99,0.00,,,0.01,meteohub,2013-08-21 08:12:00,
2013-08-21 04:17:00,59.5,59.2,29.98,South,183,0.0,1.0,99,0.00,,,0.01,meteohub,2013-08-21 08:17:00,
2013-08-21 04:22:00,59.5,59.2,29.97,South,183,1.0,1.0,99,0.00,,,0.01,meteohub,2013-08-21 08:22:00,
2013-08-21 04:27:00,59.4,59.0,29.98,South,184,0.0,1.0,99,0.00,,,0.01,meteohub,2013-08-21 08:27:00,
2013-08-21 04:32:00,59.4,59.0,29.97,South,184,0.0,2.0,99,0.00,,,0.01,meteohub,2013-08-21 08:32:00,
2013-08-21 04:38:00,59.4,59.0,29.98,South,184,0.0,2.0,99,0.00,,,0.01,meteohub,2013-08-21 08:38:00,
2013-08-21 04:43:00,59.4,59.0,29.98,South,184,0.0,1.0,99,0.00,,,0.01,meteohub,2013-08-21 08:43:00,
2013-08-21 04:48:00,59.2,58.8,29.98,South,184,0.0,1.0,99,0.00,,,0.01,meteohub,2013-08-21 08:48:00,
2013-08-21 04:53:00,59.2,58.8,29.98,South,184,0.0,1.0,99,0.00,,,0.01,meteohub,2013-08-21 08:53:00,
2013-08-21 04:58:00,59.2,58.8,29.98,South,184,0.0,1.0,99,0.00,,,0.01,meteohub,2013-08-21 08:58:00,
2013-08-21 05:03:00,59.4,59.0,29.99,South,184,0.0,1.0,99,0.00,,,0.01,meteohub,2013-08-21 09:03:00,
2013-08-21 05:08:00,59.2,58.8,29.99,South,184,0.0,1.0,99,0.00,,,0.01,meteohub,2013-08-21 09:08:00,
2013-08-21 05:13:00,58.8,58.5,29.99,South,182,0.0,1.0,99,0.00,,,0.01,meteohub,2013-08-21 09:13:00,
2013-08-21 05:19:00,58.6,58.3,29.99,South,182,0.0,1.0,99,0.00,,,0.01,meteohub,2013-08-21 09:19:00,
2013-08-21 05:24:00,58.6,58.3,29.99,South,182,0.0,2.0,99,0.00,,,0.01,meteohub,2013-08-21 09:24:00,
2013-08-21 05:29:00,58.6,58.3,29.99,South,182,0.0,2.0,99,0.00,,,0.01,meteohub,2013-08-21 09:29:00,
2013-08-21 05:34:00,58.6,58.3,29.99,South,184,0.0,3.0,99,0.00,,,0.01,meteohub,2013-08-21 09:34:00,
2013-08-21 05:39:00,58.6,58.3,29.99,South,184,0.0,3.0,99,0.00,,,0.01,meteohub,2013-08-21 09:39:00,
2013-08-21 05:44:00,58.6,58.3,29.99,South,184,0.0,3.0,99,0.00,,,0.01,meteohub,2013-08-21 09:44:00,
2013-08-21 05:49:00,58.6,58.3,29.99,SSE,161,0.0,3.0,99,0.00,,,0.01,meteohub,2013-08-21 09:49:00,
2013-08-21 05:55:00,58.6,58.3,29.99,SSE,167,0.0,2.0,99,0.00,,,0.01,meteohub,2013-08-21 09:55:00,
2013-08-21 06:00:00,58.6,58.3,29.99,SSE,167,0.0,2.0,99,0.00,,,0.01,meteohub,2013-08-21 10:00:00,
2013-08-21 06:05:00,58.5,58.1,30.00,South,188,0.0,2.0,99,0.00,,,0.01,meteohub,2013-08-21 10:05:00,
2013-08-21 06:10:00,58.5,58.1,29.99,SSW,192,1.0,2.0,99,0.00,,,0.01,meteohub,2013-08-21 10:10:00,
2013-08-21 06:15:00,58.5,58.1,29.99,SSW,192,0.0,3.0,99,0.00,,,0.01,meteohub,2013-08-21 10:15:00,
2013-08-21 06:20:00,58.5,58.1,29.99,SSW,192,0.0,3.0,99,0.00,,,0.01,meteohub,2013-08-21 10:20:00,
2013-08-21 06:25:00,58.6,58.3,29.99,SSW,192,0.0,3.0,99,0.00,,,0.01,meteohub,2013-08-21 10:25:00,
2013-08-21 06:30:00,58.6,58.3,29.99,SSW,194,0.0,2.0,99,0.00,,,0.01,meteohub,2013-08-21 10:30:00,
2013-08-21 06:36:00,58.6,58.3,29.99,South,184,0.0,2.0,99,0.00,,,0.01,meteohub,2013-08-21 10:36:00,
2013-08-21 06:41:00,58.6,58.3,29.99,South,184,0.0,2.0,99,0.00,,,0.01,meteohub,2013-08-21 10:41:00,
2013-08-21 06:46:00,58.5,58.1,30.00,South,184,0.0,2.0,99,0.00,,,0.01,meteohub,2013-08-21 10:46:00,
2013-08-21 06:51:00,58.6,58.3,29.99,SSE,163,0.0,2.0,99,0.00,,,0.01,meteohub,2013-08-21 10:51:00,
2013-08-21 06:56:00,58.8,58.5,29.99,SSE,163,0.0,2.0,99,0.00,,,0.01,meteohub,2013-08-21 10:56:00,
2013-08-21 07:01:00,59.2,58.8,29.99,SSE,163,0.0,2.0,99,0.00,,,0.01,meteohub,2013-08-21 11:01:00,
2013-08-21 07:06:00,59.4,59.4,29.99,South,189,0.0,2.0,100,0.00,,,0.01,meteohub,2013-08-21 11:06:00,
2013-08-21 07:11:00,59.7,59.4,29.99,South,178,0.0,4.0,99,0.00,,,0.01,meteohub,2013-08-21 11:11:00,
2013-08-21 07:17:00,60.1,59.7,29.99,South,187,3.0,4.0,99,0.00,,,0.01,meteohub,2013-08-21 11:17:00,
2013-08-21 07:22:00,60.1,60.1,29.99,South,171,1.0,3.0,100,0.00,,,0.01,meteohub,2013-08-21 11:22:00,
2013-08-21 07:27:00,60.3,60.3,29.99,South,186,0.0,3.0,100,0.00,,,0.01,meteohub,2013-08-21 11:27:00,
2013-08-21 07:32:00,60.4,60.4,29.99,SSE,159,0.0,4.0,100,0.00,,,0.01,meteohub,2013-08-21 11:32:00,
2013-08-21 07:37:00,60.8,60.8,29.99,South,190,0.0,4.0,100,0.00,,,0.01,meteohub,2013-08-21 11:37:00,
2013-08-21 07:42:00,61.3,61.3,29.99,South,190,0.0,4.0,100,0.00,,,0.01,meteohub,2013-08-21 11:42:00,
2013-08-21 07:47:00,62.1,62.1,29.99,South,190,0.0,2.0,100,0.00,,,0.01,meteohub,2013-08-21 11:47:00,
2013-08-21 07:52:00,62.4,62.4,29.99,South,190,0.0,2.0,100,0.00,,,0.01,meteohub,2013-08-21 11:52:00,
2013-08-21 07:57:00,62.8,62.8,29.99,South,190,1.0,1.0,100,0.00,,,0.01,meteohub,2013-08-21 11:57:00,
2013-08-21 08:02:00,63.1,63.1,29.99,SSW,202,0.0,2.0,100,0.00,,,0.01,meteohub,2013-08-21 12:02:00,
2013-08-21 08:07:00,64.0,64.0,29.99,South,183,0.0,2.0,100,0.00,,,0.01,meteohub,2013-08-21 12:07:00,
2013-08-21 08:12:00,64.9,64.9,29.98,South,183,0.0,2.0,100,0.00,,,0.01,meteohub,2013-08-21 12:12:00,
2013-08-21 08:17:00,65.8,65.8,29.98,South,183,0.0,2.0,100,0.00,,,0.01,meteohub,2013-08-21 12:17:00,
2013-08-21 08:22:00,66.7,66.7,29.98,South,183,0.0,2.0,100,0.00,,,0.01,meteohub,2013-08-21 12:22:00,
2013-08-21 08:27:00,67.3,67.3,29.98,South,183,1.0,1.0,100,0.00,,,0.01,meteohub,2013-08-21 12:27:00,
2013-08-21 08:32:00,67.6,67.6,29.98,South,183,0.0,2.0,100,0.00,,,0.01,meteohub,2013-08-21 12:32:00,
2013-08-21 08:37:00,68.2,67.8,29.98,South,183,0.0,2.0,99,0.00,,,0.01,meteohub,2013-08-21 12:37:00,
2013-08-21 08:42:00,69.1,67.6,29.98,South,183,0.0,2.0,95,0.00,,,0.01,meteohub,2013-08-21 12:42:00,
2013-08-21 08:47:00,69.4,67.3,29.98,South,183,0.0,1.0,93,0.00,,,0.01,meteohub,2013-08-21 12:47:00,
2013-08-21 08:52:00,70.3,67.8,29.98,South,183,0.0,1.0,92,0.00,,,0.01,meteohub,2013-08-21 12:52:00,
2013-08-21 08:57:00,71.2,68.2,29.98,South,183,0.0,1.0,90,0.00,,,0.01,meteohub,2013-08-21 12:57:00,
2013-08-21 09:02:00,72.1,68.0,29.98,South,183,0.0,1.0,87,0.00,,,0.01,meteohub,2013-08-21 13:02:00,
2013-08-21 09:07:00,72.9,68.7,29.98,South,183,0.0,1.0,87,0.00,,,0.01,meteohub,2013-08-21 13:07:00,
2013-08-21 09:12:00,73.6,69.1,29.98,South,183,0.0,1.0,86,0.00,,,0.01,meteohub,2013-08-21 13:12:00,
2013-08-21 09:17:00,74.1,68.9,29.98,SSW,200,0.0,0.0,84,0.00,,,0.01,meteohub,2013-08-21 13:17:00,
2013-08-21 09:22:00,73.9,68.2,29.98,West,263,5.0,5.0,82,0.00,,,0.01,meteohub,2013-08-21 13:22:00,
2013-08-21 09:27:00,73.2,67.5,29.98,West,279,4.0,7.0,82,0.00,,,0.01,meteohub,2013-08-21 13:27:00,
2013-08-21 09:32:00,73.0,68.0,29.97,SSE,147,1.0,7.0,84,0.00,,,0.01,meteohub,2013-08-21 13:32:00,
2013-08-21 09:37:00,73.9,68.4,29.98,SW,215,0.0,7.0,83,0.00,,,0.01,meteohub,2013-08-21 13:37:00,
2013-08-21 09:42:00,73.8,67.6,29.98,SW,217,8.0,8.0,81,0.00,,,0.01,meteohub,2013-08-21 13:42:00,
2013-08-21 09:47:00,73.6,67.5,29.98,NNE,16,5.0,8.0,81,0.00,,,0.01,meteohub,2013-08-21 13:47:00,
2013-08-21 09:53:00,73.9,67.8,29.97,NW,315,0.0,8.0,81,0.00,,,0.01,meteohub,2013-08-21 13:53:00,
2013-08-21 09:58:00,74.1,68.0,29.97,SSW,202,0.0,8.0,81,0.00,,,0.01,meteohub,2013-08-21 13:58:00,
2013-08-21 10:03:00,75.2,68.5,29.97,WSW,257,0.0,6.0,80,0.00,,,0.01,meteohub,2013-08-21 14:03:00,
2013-08-21 10:08:00,75.7,68.4,29.97,NW,305,0.0,6.0,78,0.00,,,0.01,meteohub,2013-08-21 14:08:00,
2013-08-21 10:13:00,76.1,68.4,29.96,WSW,244,0.0,4.0,77,0.00,,,0.01,meteohub,2013-08-21 14:13:00,
2013-08-21 10:18:00,76.5,68.7,29.96,North,350,1.0,5.0,77,0.00,,,0.01,meteohub,2013-08-21 14:18:00,
2013-08-21 10:23:00,76.6,68.9,29.96,West,280,0.0,5.0,77,0.00,,,0.01,meteohub,2013-08-21 14:23:00,
2013-08-21 10:28:00,76.8,69.1,29.96,NNE,32,3.0,5.0,77,0.00,,,0.01,meteohub,2013-08-21 14:28:00,
2013-08-21 10:34:00,77.4,68.9,29.96,NW,315,4.0,7.0,75,0.00,,,0.01,meteohub,2013-08-21 14:34:00,
2013-08-21 10:39:00,77.9,68.9,29.96,WSW,241,5.0,8.0,74,0.00,,,0.01,meteohub,2013-08-21 14:39:00,
2013-08-21 10:44:00,77.7,68.0,29.96,West,261,7.0,9.0,72,0.00,,,0.01,meteohub,2013-08-21 14:44:00,
2013-08-21 10:49:00,77.7,68.4,29.95,NW,313,2.0,9.0,73,0.00,,,0.01,meteohub,2013-08-21 14:49:00,
2013-08-21 10:54:00,78.3,69.3,29.95,WSW,258,0.0,9.0,74,0.00,,,0.01,meteohub,2013-08-21 14:54:00,
2013-08-21 10:59:00,79.0,70.0,29.95,WNW,283,0.0,9.0,74,0.00,,,0.01,meteohub,2013-08-21 14:59:00,
2013-08-21 11:04:00,79.5,68.5,29.95,WNW,300,3.0,7.0,69,0.00,,,0.01,meteohub,2013-08-21 15:04:00,
2013-08-21 11:09:00,79.5,68.0,29.95,SW,214,0.0,9.0,68,0.00,,,0.01,meteohub,2013-08-21 15:09:00,
2013-08-21 11:15:00,80.2,68.7,29.95,SSW,209,5.0,11.0,68,0.00,,,0.01,meteohub,2013-08-21 15:15:00,
2013-08-21 11:20:00,80.2,68.4,29.94,SSE,163,2.0,11.0,67,0.00,,,0.01,meteohub,2013-08-21 15:20:00,
2013-08-21 11:25:00,80.4,68.0,29.94,NW,311,0.0,11.0,66,0.00,,,0.01,meteohub,2013-08-21 15:25:00,
2013-08-21 11:30:00,80.4,68.5,29.94,SW,235,6.0,12.0,67,0.00,,,0.01,meteohub,2013-08-21 15:30:00,
2013-08-21 11:35:00,81.0,68.0,29.94,SSE,158,2.0,12.0,65,0.00,,,0.01,meteohub,2013-08-21 15:35:00,
2013-08-21 11:40:00,81.1,68.2,29.94,NNE,27,3.0,12.0,65,0.00,,,0.01,meteohub,2013-08-21 15:40:00,
2013-08-21 11:45:00,81.3,68.4,29.94,West,266,1.0,8.0,65,0.00,,,0.01,meteohub,2013-08-21 15:45:00,
2013-08-21 11:50:00,81.7,68.4,29.94,NW,308,5.0,8.0,64,0.00,,,0.01,meteohub,2013-08-21 15:50:00,
2013-08-21 11:56:00,81.7,68.4,29.94,SSW,198,7.0,11.0,64,0.00,,,0.01,meteohub,2013-08-21 15:56:00,
2013-08-21 12:01:00,81.9,68.0,29.94,WSW,242,2.0,11.0,63,0.00,,,0.01,meteohub,2013-08-21 16:01:00,
2013-08-21 12:06:00,82.2,68.9,29.94,West,279,2.0,12.0,64,0.00,,,0.01,meteohub,2013-08-21 16:06:00,
2013-08-21 12:11:00,82.8,69.8,29.94,NNE,19,4.0,12.0,65,0.00,,,0.01,meteohub,2013-08-21 16:11:00,
2013-08-21 12:16:00,82.2,67.5,29.94,SSW,213,3.0,12.0,61,0.00,,,0.01,meteohub,2013-08-21 16:16:00,
2013-08-21 12:21:00,81.7,67.8,29.93,NE,38,0.0,11.0,63,0.00,,,0.01,meteohub,2013-08-21 16:21:00,
2013-08-21 12:26:00,81.7,67.8,29.93,WSW,254,5.0,11.0,63,0.00,,,0.01,meteohub,2013-08-21 16:26:00,
2013-08-21 12:31:00,81.7,67.8,29.93,SW,228,3.0,14.0,63,0.00,,,0.01,meteohub,2013-08-21 16:31:00,
2013-08-21 12:37:00,81.9,68.5,29.93,SSW,200,7.0,14.0,64,0.00,,,0.01,meteohub,2013-08-21 16:37:00,
2013-08-21 12:42:00,82.0,67.6,29.93,SSW,212,4.0,14.0,62,0.00,,,0.01,meteohub,2013-08-21 16:42:00,
2013-08-21 12:47:00,82.2,67.8,29.93,WSW,252,4.0,12.0,62,0.00,,,0.01,meteohub,2013-08-21 16:47:00,
2013-08-21 12:52:00,82.6,68.2,29.93,SW,236,9.0,14.0,62,0.00,,,0.01,meteohub,2013-08-21 16:52:00,
2013-08-21 12:57:00,82.8,68.4,29.93,NW,310,6.0,14.0,62,0.00,,,0.01,meteohub,2013-08-21 16:57:00,
2013-08-21 13:02:00,82.9,67.6,29.93,SSW,212,4.0,14.0,60,0.00,,,0.01,meteohub,2013-08-21 17:02:00,
2013-08-21 13:07:00,82.9,67.6,29.93,WNW,295,3.0,14.0,60,0.00,,,0.01,meteohub,2013-08-21 17:07:00,
2013-08-21 13:12:00,83.1,67.3,29.93,SW,230,5.0,12.0,59,0.00,,,0.01,meteohub,2013-08-21 17:12:00,
2013-08-21 13:17:00,83.1,67.3,29.93,West,281,2.0,12.0,59,0.00,,,0.01,meteohub,2013-08-21 17:17:00,
2013-08-21 13:22:00,83.7,68.7,29.93,SSE,165,8.0,11.0,61,0.00,,,0.01,meteohub,2013-08-21 17:22:00,
2013-08-21 13:27:00,84.4,68.5,29.92,WNW,300,0.0,11.0,59,0.00,,,0.01,meteohub,2013-08-21 17:27:00,
2013-08-21 13:32:00,84.6,68.7,29.92,WSW,240,2.0,11.0,59,0.00,,,0.01,meteohub,2013-08-21 17:32:00,
2013-08-21 13:37:00,84.4,68.9,29.92,West,274,4.0,11.0,60,0.00,,,0.01,meteohub,2013-08-21 17:37:00,
2013-08-21 13:42:00,84.7,68.4,29.92,South,178,0.0,10.0,58,0.00,,,0.01,meteohub,2013-08-21 17:42:00,
2013-08-21 13:47:00,84.9,68.0,29.91,WNW,292,2.0,10.0,57,0.00,,,0.01,meteohub,2013-08-21 17:47:00,
2013-08-21 13:52:00,85.1,67.1,29.91,West,260,13.0,13.0,55,0.00,,,0.01,meteohub,2013-08-21 17:52:00,
2013-08-21 13:57:00,84.9,68.0,29.91,West,271,5.0,14.0,57,0.00,,,0.01,meteohub,2013-08-21 17:57:00,
2013-08-21 14:02:00,84.6,66.6,29.91,WNW,301,6.0,14.0,55,0.00,,,0.01,meteohub,2013-08-21 18:02:00,
2013-08-21 14:07:00,84.6,66.6,29.91,West,265,9.0,15.0,55,0.00,,,0.01,meteohub,2013-08-21 18:07:00,
2013-08-21 14:12:00,84.6,67.1,29.91,WSW,246,2.0,15.0,56,0.00,,,0.01,meteohub,2013-08-21 18:12:00,
2013-08-21 14:17:00,84.7,66.2,29.91,NW,309,7.0,13.0,54,0.00,,,0.01,meteohub,2013-08-21 18:17:00,
2013-08-21 14:22:00,84.9,66.9,29.91,WNW,288,1.0,11.0,55,0.00,,,0.01,meteohub,2013-08-21 18:22:00,
2013-08-21 14:27:00,84.7,66.2,29.90,WNW,288,6.0,13.0,54,0.00,,,0.01,meteohub,2013-08-21 18:27:00,
2013-08-21 14:33:00,85.1,66.6,29.90,WNW,284,8.0,13.0,54,0.00,,,0.01,meteohub,2013-08-21 18:33:00,
2013-08-21 14:38:00,85.1,66.6,29.90,WNW,296,11.0,13.0,54,0.00,,,0.01,meteohub,2013-08-21 18:38:00,
2013-08-21 14:43:00,85.3,66.7,29.90,SW,226,3.0,15.0,54,0.00,,,0.01,meteohub,2013-08-21 18:43:00,
2013-08-21 14:48:00,85.5,66.9,29.89,SW,232,6.0,15.0,54,0.00,,,0.01,meteohub,2013-08-21 18:48:00,
2013-08-21 14:53:00,85.5,66.4,29.90,SW,222,10.0,15.0,53,0.00,,,0.01,meteohub,2013-08-21 18:53:00,
2013-08-21 14:58:00,85.1,66.0,29.90,West,259,5.0,11.0,53,0.00,,,0.01,meteohub,2013-08-21 18:58:00,
2013-08-21 15:03:00,85.3,66.7,29.90,North,355,3.0,14.0,54,0.00,,,0.01,meteohub,2013-08-21 19:03:00,
2013-08-21 15:08:00,85.3,65.7,29.89,SW,225,10.0,14.0,52,0.00,,,0.01,meteohub,2013-08-21 19:08:00,
2013-08-21 15:14:00,85.3,66.2,29.90,South,173,6.0,14.0,53,0.00,,,0.01,meteohub,2013-08-21 19:14:00,
2013-08-21 15:19:00,84.9,65.8,29.89,WSW,257,4.0,12.0,53,0.00,,,0.01,meteohub,2013-08-21 19:19:00,
2013-08-21 15:24:00,84.9,65.8,29.89,SSE,155,6.0,18.0,53,0.00,,,0.01,meteohub,2013-08-21 19:24:00,
2013-08-21 15:29:00,85.3,66.2,29.89,ESE,122,2.0,18.0,53,0.00,,,0.01,meteohub,2013-08-21 19:29:00,
2013-08-21 15:34:00,85.3,65.1,29.89,SW,224,6.0,14.0,51,0.00,,,0.01,meteohub,2013-08-21 19:34:00,
2013-08-21 15:39:00,85.5,64.8,29.89,West,267,5.0,12.0,50,0.00,,,0.01,meteohub,2013-08-21 19:39:00,
2013-08-21 15:44:00,85.5,64.0,29.89,SW,220,9.0,11.0,49,0.00,,,0.01,meteohub,2013-08-21 19:44:00,
2013-08-21 15:49:00,85.3,64.6,29.89,West,275,9.0,11.0,50,0.00,,,0.01,meteohub,2013-08-21 19:49:00,
2013-08-21 15:55:00,85.5,65.3,29.89,WSW,240,2.0,14.0,51,0.00,,,0.01,meteohub,2013-08-21 19:55:00,
2013-08-21 16:00:00,85.5,65.3,29.89,SW,228,2.0,14.0,51,0.00,,,0.01,meteohub,2013-08-21 20:00:00,
2013-08-21 16:05:00,85.8,64.9,29.88,WSW,257,3.0,12.0,50,0.00,,,0.01,meteohub,2013-08-21 20:05:00,
2013-08-21 16:10:00,85.8,64.9,29.88,WNW,294,7.0,14.0,50,0.00,,,0.01,meteohub,2013-08-21 20:10:00,
2013-08-21 16:15:00,85.6,64.9,29.88,SW,219,8.0,14.0,50,0.00,,,0.01,meteohub,2013-08-21 20:15:00,
2013-08-21 16:20:00,85.3,64.6,29.88,WSW,246,2.0,14.0,50,0.00,,,0.01,meteohub,2013-08-21 20:20:00,
2013-08-21 16:25:00,85.1,64.4,29.88,West,266,0.0,11.0,50,0.00,,,0.01,meteohub,2013-08-21 20:25:00,
2013-08-21 16:30:00,85.3,65.1,29.87,WSW,237,0.0,11.0,51,0.00,,,0.01,meteohub,2013-08-21 20:30:00,
2013-08-21 16:36:00,85.5,65.3,29.87,SW,217,3.0,10.0,51,0.00,,,0.01,meteohub,2013-08-21 20:36:00,
2013-08-21 16:41:00,85.6,65.5,29.87,SSW,200,4.0,10.0,51,0.00,,,0.01,meteohub,2013-08-21 20:41:00,
2013-08-21 16:46:00,85.3,64.6,29.87,WNW,284,5.0,12.0,50,0.00,,,0.01,meteohub,2013-08-21 20:46:00,
2013-08-21 16:51:00,84.7,64.6,29.86,SW,220,10.0,12.0,51,0.00,,,0.01,meteohub,2013-08-21 20:51:00,
2013-08-21 16:56:00,84.6,64.4,29.86,SW,215,1.0,18.0,51,0.00,,,0.01,meteohub,2013-08-21 20:56:00,
2013-08-21 17:01:00,84.7,64.6,29.86,SSW,200,3.0,18.0,51,0.00,,,0.01,meteohub,2013-08-21 21:01:00,
2013-08-21 17:06:00,84.7,64.0,29.86,SSW,200,1.0,18.0,50,0.00,,,0.01,meteohub,2013-08-21 21:06:00,
2013-08-21 17:11:00,84.9,64.8,29.86,WSW,251,3.0,10.0,51,0.00,,,0.01,meteohub,2013-08-21 21:11:00,
2013-08-21 17:17:00,84.6,64.4,29.86,NW,305,5.0,10.0,51,0.00,,,0.01,meteohub,2013-08-21 21:17:00,
2013-08-21 17:22:00,84.4,64.8,29.86,SW,229,4.0,10.0,52,0.00,,,0.01,meteohub,2013-08-21 21:22:00,
2013-08-21 17:27:00,84.4,64.8,29.86,WSW,251,3.0,10.0,52,0.00,,,0.01,meteohub,2013-08-21 21:27:00,
2013-08-21 17:32:00,84.4,64.2,29.86,South,184,6.0,11.0,51,0.00,,,0.01,meteohub,2013-08-21 21:32:00,
2013-08-21 17:37:00,84.2,64.6,29.86,SSW,212,2.0,11.0,52,0.00,,,0.01,meteohub,2013-08-21 21:37:00,
2013-08-21 17:42:00,84.2,64.6,29.86,SW,227,2.0,11.0,52,0.00,,,0.01,meteohub,2013-08-21 21:42:00,
2013-08-21 17:47:00,84.4,64.8,29.86,West,259,0.0,9.0,52,0.00,,,0.01,meteohub,2013-08-21 21:47:00,
2013-08-21 17:52:00,84.4,65.3,29.86,SW,225,0.0,7.0,53,0.00,,,0.01,meteohub,2013-08-21 21:52:00,
2013-08-21 17:57:00,84.4,65.3,29.85,SW,221,2.0,6.0,53,0.00,,,0.01,meteohub,2013-08-21 21:57:00,
2013-08-21 18:02:00,83.7,64.8,29.85,SW,219,2.0,6.0,53,0.00,,,0.01,meteohub,2013-08-21 22:02:00,
2013-08-21 18:07:00,83.3,64.9,29.85,South,188,5.0,7.0,54,0.00,,,0.01,meteohub,2013-08-21 22:07:00,
2013-08-21 18:12:00,83.1,65.3,29.85,SSE,166,2.0,7.0,55,0.00,,,0.01,meteohub,2013-08-21 22:12:00,
2013-08-21 18:17:00,82.9,65.7,29.84,SW,217,0.0,7.0,56,0.00,,,0.01,meteohub,2013-08-21 22:17:00,
2013-08-21 18:22:00,82.8,66.6,29.84,SW,217,1.0,6.0,58,0.00,,,0.01,meteohub,2013-08-21 22:22:00,
2013-08-21 18:27:00,82.6,67.3,29.84,SW,217,0.0,5.0,60,0.00,,,0.01,meteohub,2013-08-21 22:27:00,
2013-08-21 18:32:00,81.3,66.0,29.84,WSW,244,0.0,3.0,60,0.00,,,0.01,meteohub,2013-08-21 22:32:00,
2013-08-21 18:37:00,81.1,66.9,29.84,South,183,0.0,5.0,62,0.00,,,0.01,meteohub,2013-08-21 22:37:00,
2013-08-21 18:42:00,80.8,66.6,29.84,West,265,2.0,5.0,62,0.00,,,0.01,meteohub,2013-08-21 22:42:00,
2013-08-21 18:47:00,79.9,66.6,29.84,WSW,257,3.0,5.0,64,0.00,,,0.01,meteohub,2013-08-21 22:47:00,
2013-08-21 18:52:00,79.5,66.2,29.84,West,269,1.0,4.0,64,0.00,,,0.01,meteohub,2013-08-21 22:52:00,
2013-08-21 18:58:00,79.5,65.3,29.84,SSW,204,1.0,4.0,62,0.00,,,0.01,meteohub,2013-08-21 22:58:00,
2013-08-21 19:03:00,79.5,64.9,29.84,SSW,212,1.0,4.0,61,0.00,,,0.01,meteohub,2013-08-21 23:03:00,
2013-08-21 19:08:00,79.2,65.5,29.84,SSE,159,0.0,6.0,63,0.00,,,0.01,meteohub,2013-08-21 23:08:00,
2013-08-21 19:13:00,79.0,65.3,29.84,SW,221,0.0,6.0,63,0.00,,,0.01,meteohub,2013-08-21 23:13:00,
2013-08-21 19:18:00,79.0,65.8,29.84,NW,311,0.0,6.0,64,0.00,,,0.01,meteohub,2013-08-21 23:18:00,
2013-08-21 19:23:00,78.4,65.3,29.84,West,279,0.0,5.0,64,0.00,,,0.01,meteohub,2013-08-21 23:23:00,
2013-08-21 19:28:00,78.4,64.8,29.84,WSW,252,1.0,5.0,63,0.00,,,0.01,meteohub,2013-08-21 23:28:00,
2013-08-21 19:34:00,78.4,64.8,29.84,SW,222,0.0,6.0,63,0.00,,,0.01,meteohub,2013-08-21 23:34:00,
2013-08-21 19:39:00,78.3,65.1,29.84,WSW,242,0.0,6.0,64,0.00,,,0.01,meteohub,2013-08-21 23:39:00,
2013-08-21 19:44:00,77.7,64.9,29.84,WSW,238,1.0,6.0,65,0.00,,,0.01,meteohub,2013-08-21 23:44:00,
2013-08-21 19:49:00,77.4,65.1,29.84,SW,219,0.0,6.0,66,0.00,,,0.01,meteohub,2013-08-21 23:49:00,
2013-08-21 19:54:00,76.8,64.9,29.84,SW,215,0.0,3.0,67,0.00,,,0.01,meteohub,2013-08-21 23:54:00,
2013-08-21 19:59:00,76.8,64.9,29.84,SW,215,0.0,3.0,67,0.00,,,0.01,meteohub,2013-08-21 23:59:00,
2013-08-21 20:04:00,76.6,65.3,29.84,SW,214,0.0,5.0,68,0.00,,,0.01,meteohub,2013-08-22 00:04:00,
2013-08-21 20:09:00,76.1,65.7,29.85,SW,214,0.0,5.0,70,0.00,,,0.00,meteohub,2013-08-22 00:09:00,
2013-08-21 20:15:00,75.6,65.5,29.84,SW,215,2.0,5.0,71,0.00,,,0.00,meteohub,2013-08-22 00:15:00,
2013-08-21 20:20:00,74.8,64.8,29.85,SW,232,0.0,1.0,71,0.00,,,0.00,meteohub,2013-08-22 00:20:00,
2013-08-21 20:25:00,74.5,65.3,29.85,SW,232,0.0,2.0,73,0.00,,,0.00,meteohub,2013-08-22 00:25:00,
2013-08-21 20:30:00,73.9,65.1,29.86,SW,232,0.0,2.0,74,0.00,,,0.00,meteohub,2013-08-22 00:30:00,
2013-08-21 20:35:00,73.2,64.8,29.86,SW,232,0.0,2.0,75,0.00,,,0.00,meteohub,2013-08-22 00:35:00,
2013-08-21 20:40:00,72.7,65.1,29.86,SW,232,0.0,2.0,77,0.00,,,0.00,meteohub,2013-08-22 00:40:00,
2013-08-21 20:45:00,72.1,65.3,29.86,SW,232,2.0,2.0,79,0.00,,,0.00,meteohub,2013-08-22 00:45:00,
2013-08-21 20:50:00,71.8,64.9,29.86,SW,232,0.0,2.0,79,0.00,,,0.00,meteohub,2013-08-22 00:50:00,
2013-08-21 20:56:00,71.2,64.8,29.86,SW,232,0.0,2.0,80,0.00,,,0.00,meteohub,2013-08-22 00:56:00,
2013-08-21 21:01:00,70.9,64.8,29.86,SW,232,0.0,2.0,81,0.00,,,0.00,meteohub,2013-08-22 01:01:00,
2013-08-21 21:06:00,70.5,64.8,29.86,SW,232,0.0,2.0,82,0.00,,,0.00,meteohub,2013-08-22 01:06:00,
2013-08-21 21:11:00,70.3,64.6,29.86,SW,232,0.0,2.0,82,0.00,,,0.00,meteohub,2013-08-22 01:11:00,
2013-08-21 21:16:00,70.2,64.8,29.86,SW,232,0.0,2.0,83,0.00,,,0.00,meteohub,2013-08-22 01:16:00,
2013-08-21 21:21:00,70.0,64.6,29.86,SW,232,0.0,2.0,83,0.00,,,0.00,meteohub,2013-08-22 01:21:00,
2013-08-21 21:26:00,69.8,64.8,29.86,SW,232,0.0,0.0,84,0.00,,,0.00,meteohub,2013-08-22 01:26:00,
2013-08-21 21:31:00,69.4,64.4,29.86,SW,232,0.0,1.0,84,0.00,,,0.00,meteohub,2013-08-22 01:31:00,
2013-08-21 21:37:00,69.4,64.4,29.86,SW,232,0.0,2.0,84,0.00,,,0.00,meteohub,2013-08-22 01:37:00,
2013-08-21 21:42:00,69.6,64.6,29.86,SW,226,2.0,2.0,84,0.00,,,0.00,meteohub,2013-08-22 01:42:00,
2013-08-21 21:47:00,70.0,64.6,29.86,SW,225,0.0,3.0,83,0.00,,,0.00,meteohub,2013-08-22 01:47:00,
2013-08-21 21:52:00,70.0,64.6,29.85,SSW,205,2.0,3.0,83,0.00,,,0.00,meteohub,2013-08-22 01:52:00,
2013-08-21 21:57:00,70.2,64.8,29.86,SW,215,1.0,3.0,83,0.00,,,0.00,meteohub,2013-08-22 01:57:00,
2013-08-21 22:02:00,70.0,64.6,29.86,SW,216,0.0,4.0,83,0.00,,,0.00,meteohub,2013-08-22 02:02:00,
2013-08-21 22:07:00,69.6,64.6,29.86,SW,216,0.0,4.0,84,0.00,,,0.00,meteohub,2013-08-22 02:07:00,
2013-08-21 22:12:00,69.4,64.8,29.86,SW,216,0.0,2.0,85,0.00,,,0.00,meteohub,2013-08-22 02:12:00,
2013-08-21 22:17:00,69.1,64.4,29.86,SW,216,0.0,1.0,85,0.00,,,0.00,meteohub,2013-08-22 02:17:00,
2013-08-21 22:22:00,68.7,64.4,29.86,SW,217,0.0,1.0,86,0.00,,,0.00,meteohub,2013-08-22 02:22:00,
2013-08-21 22:27:00,68.5,64.2,29.86,SW,217,0.0,1.0,86,0.00,,,0.00,meteohub,2013-08-22 02:27:00,
2013-08-21 22:32:00,68.2,64.2,29.85,SW,217,0.0,2.0,87,0.00,,,0.00,meteohub,2013-08-22 02:32:00,
2013-08-21 22:37:00,67.8,63.9,29.85,SW,217,0.0,2.0,87,0.00,,,0.00,meteohub,2013-08-22 02:37:00,
2013-08-21 22:42:00,67.8,64.2,29.84,South,184,0.0,4.0,88,0.00,,,0.00,meteohub,2013-08-22 02:42:00,
2013-08-21 22:47:00,68.2,64.2,29.84,SSW,209,0.0,4.0,87,0.00,,,0.00,meteohub,2013-08-22 02:47:00,
2013-08-21 22:52:00,68.4,64.4,29.84,SSW,209,1.0,4.0,87,0.00,,,0.00,meteohub,2013-08-22 02:52:00,
2013-08-21 22:57:00,68.2,64.4,29.84,SSW,197,0.0,3.0,88,0.00,,,0.00,meteohub,2013-08-22 02:57:00,
2013-08-21 23:02:00,68.2,64.4,29.84,SSW,197,0.0,3.0,88,0.00,,,0.00,meteohub,2013-08-22 03:02:00,
2013-08-21 23:07:00,67.8,64.2,29.84,SSW,197,0.0,2.0,88,0.00,,,0.00,meteohub,2013-08-22 03:07:00,
2013-08-21 23:12:00,67.8,64.2,29.84,SSW,211,0.0,1.0,88,0.00,,,0.00,meteohub,2013-08-22 03:12:00,
2013-08-21 23:17:00,67.8,64.2,29.84,SSW,211,0.0,1.0,88,0.00,,,0.00,meteohub,2013-08-22 03:17:00,
2013-08-21 23:22:00,67.8,64.2,29.84,SSW,211,0.0,1.0,88,0.00,,,0.00,meteohub,2013-08-22 03:22:00,
2013-08-21 23:27:00,68.2,64.4,29.84,SSW,211,0.0,1.0,88,0.00,,,0.00,meteohub,2013-08-22 03:27:00,
2013-08-21 23:32:00,68.2,64.4,29.84,SSW,211,0.0,1.0,88,0.00,,,0.00,meteohub,2013-08-22 03:32:00,
2013-08-21 23:37:00,68.0,64.4,29.84,SSW,211,0.0,1.0,88,0.00,,,0.00,meteohub,2013-08-22 03:37:00,
2013-08-21 23:42:00,67.6,64.0,29.84,SSW,211,0.0,1.0,88,0.00,,,0.00,meteohub,2013-08-22 03:42:00,
2013-08-21 23:47:00,67.5,64.0,29.84,SSW,211,2.0,2.0,89,0.00,,,0.00,meteohub,2013-08-22 03:47:00,
2013-08-21 23:52:00,67.3,63.9,29.83,SSW,211,0.0,2.0,89,0.00,,,0.00,meteohub,2013-08-22 03:52:00,
2013-08-21 23:57:00,67.1,64.0,29.83,SSW,211,0.0,2.0,90,0.00,,,0.00,meteohub,2013-08-22 03:57:00,